Weather in Beketovo

Russia / Kursk Oblast     51°27′10″N   37°52′18″E
temp.,
°C
wind,
m/s
gust,
m/s
humid.,
%
clouds,
%
prec.,
mm/h
press.,
hPa
HPBL,
m
8 march, mon
mon800:00−1wsw91690100 0.2 1006864
03:00−2w6129697 1.4 1006655
06:00−2wnw2498100 2.3 1005185
09:00−3wnw51095100 4.0 1005596
12:00−1wnw6981100 0.2 10061003
15:00−1wnw588197 0.2 10071017
18:00−5wnw33880 0.0 100828
21:00−7wnw33901 0.0 101031
9 march, tue
tue900:00−7wnw229677 0.1 101042
03:00−9nw239675 0.1 101143
06:00−8nnw4795100 0.5 1012284
09:00−11nnw469293 0.6 1014210
12:00−8nnw469250 0.0 1016363
15:00−8nnw568775 0.1 1018676
18:00−11nw489295 0.0 1019202
21:00−14nw359448 0.0 102288
10 march, wed
wed1000:00−15nw34942 0.0 102375
03:00−16nw359622 0.0 102497
06:00−18nnw349768 0.0 102681
09:00−16nnw359334 0.0 1027183
12:00−13nnw35850 0.0 1028338
15:00−11nnw348425 0.0 1028526
18:00−12nne2394100 0.0 1028144
21:00−15ne3594100 0.1 1030111
11 march, thu
thu1100:00−18ne359168 0.0 1031104
03:00−20ne339177 0.0 103278
06:00−21ene33900 0.0 103349
09:00−18ene34870 0.0 1034170
12:00−13e34760 0.0 1034396
15:00−11ene34740 0.0 1034436
18:00−14ene34820 0.0 103357
21:00−16e34830 0.0 103449
12 march, fri
fri1200:00−16e34840 0.0 103444
03:00−15se23810 0.0 103425
06:00−15sse33820 0.0 103424
09:00−12sse48790 0.0 1034338
12:00−9sse58630 0.0 1033683
15:00−7s586032 0.0 1032834
18:00−9sse4765100 0.0 1031122
21:00−9sse5106296 0.0 1031189